Weather home | Your neighborhood | Marine | Radar | Hurricane | Almanac

Daily weather history


Statistical History for Thursday, February 16, 2017

Tampa Knight Airport, FL


  Actual Average (KTPA) Record (KTPA)
Temperature
Mean Temperature -  
Max Temperature 71 °F 85 °F (1932)
Min Temperature 54 °F 33 °F (1991)
Degree Days
Heating Degree Days    
Growing Degree Days 13 (Base - )  
Moisture
Dew Point   
Average Humidity    
Maximum Humidity    
Minimum Humidity    
Precipitation
Precipitation - - ()
Wind
Wind Speed   
Max Wind Speed   
Max Gust Speed   
Visibility   
Events   
Averages and records for this station are not official NWS values.
Key: T is trace of precipitation, MM is missing value
Source: NWS Daily Summary
Seasonal Weather Averages
Time(EST)TemperatureDew PointHumidity Sea Level Pressure Visibility Wind DirectionWind SpeedGust SpeedPrecipitationEventsConditions
12:15 AM 68.0 °F 60.8 °F 78% 29.91 in 10.0 miles WNW 5.8 mph 16.1 mph N/A   Overcast
12:35 AM 68.0 °F 59.0 °F 73% 29.91 in 10.0 miles WNW 10.4 mph 18.4 mph N/A   Overcast
12:55 AM 68.0 °F 59.0 °F 73% 29.91 in 10.0 miles WNW 10.4 mph 20.7 mph N/A   Overcast
1:15 AM 68.0 °F 59.0 °F 73% 29.92 in 10.0 miles WNW 11.5 mph 16.1 mph N/A   Overcast
1:35 AM 68.0 °F 59.0 °F 73% 29.93 in 10.0 miles WNW 9.2 mph 17.3 mph N/A   Overcast
1:55 AM 68.0 °F 59.0 °F 73% 29.93 in 10.0 miles WNW 9.2 mph 16.1 mph N/A   Overcast
2:15 AM 68.0 °F 59.0 °F 73% 29.92 in 10.0 miles NW 6.9 mph 16.1 mph N/A   Overcast
2:35 AM 68.0 °F 57.2 °F 68% 29.93 in 10.0 miles NW 6.9 mph 18.4 mph N/A   Overcast
2:55 AM 66.2 °F 57.2 °F 73% 29.93 in 10.0 miles NW 6.9 mph - N/A   Overcast
3:15 AM 66.2 °F 55.4 °F 68% 29.93 in 10.0 miles WNW 6.9 mph - N/A   Overcast
3:35 AM 66.2 °F 55.4 °F 68% 29.93 in 10.0 miles WNW 5.8 mph - N/A   Overcast
3:55 AM 68.0 °F 55.4 °F 64% 29.93 in 10.0 miles WNW 9.2 mph 19.6 mph N/A   Overcast
4:15 AM 68.0 °F 55.4 °F 64% 29.93 in 10.0 miles NW 5.8 mph - N/A   Overcast
4:35 AM 66.2 °F 55.4 °F 68% 29.93 in 10.0 miles NW 6.9 mph 17.3 mph N/A   Overcast
4:55 AM 64.4 °F 57.2 °F 77% 29.93 in 10.0 miles NW 4.6 mph - N/A   Overcast
5:15 AM 64.4 °F 55.4 °F 73% 29.93 in 10.0 miles North 8.1 mph 17.3 mph N/A   Overcast
5:35 AM 64.4 °F 55.4 °F 73% 29.95 in 10.0 miles NNW 8.1 mph - N/A   Overcast
5:55 AM 62.6 °F 55.4 °F 77% 29.95 in 10.0 miles North 10.4 mph - N/A   Overcast
6:15 AM 62.6 °F 53.6 °F 72% 29.94 in 10.0 miles North 9.2 mph - N/A   Overcast
6:35 AM 62.6 °F 53.6 °F 72% 29.95 in 10.0 miles North 6.9 mph - N/A   Mostly Cloudy
6:55 AM 62.6 °F 53.6 °F 72% 29.96 in 10.0 miles North 5.8 mph - N/A   Mostly Cloudy
7:15 AM 60.8 °F 53.6 °F 77% 29.97 in 10.0 miles North 4.6 mph 28.8 mph N/A   Mostly Cloudy
7:35 AM 60.8 °F 53.6 °F 77% 29.98 in 10.0 miles North 4.6 mph - N/A   Overcast
7:55 AM 62.6 °F 51.8 °F 68% 29.99 in 10.0 miles North 6.9 mph - N/A   Mostly Cloudy
8:15 AM 62.6 °F 51.8 °F 68% 30.01 in 10.0 miles North 6.9 mph - N/A   Overcast
8:35 AM 62.6 °F 48.2 °F 59% 30.01 in 10.0 miles NNW 6.9 mph - N/A   Overcast
8:55 AM 62.6 °F 44.6 °F 52% 30.03 in 10.0 miles NNW 6.9 mph - N/A   Overcast
9:15 AM 62.6 °F 42.8 °F 48% 30.04 in 10.0 miles NNW 5.8 mph - N/A   Overcast
9:35 AM 64.4 °F 42.8 °F 45% 30.04 in 10.0 miles Calm Calm - N/A   Overcast
9:55 AM 64.4 °F 42.8 °F 45% 30.04 in 10.0 miles North 4.6 mph - N/A   Overcast
10:15 AM 64.4 °F 42.8 °F 45% 30.05 in 10.0 miles North - - N/A   Overcast
10:35 AM 66.2 °F 44.6 °F 46% 30.05 in 10.0 miles NNW 3.5 mph - N/A   Overcast
10:55 AM 68.0 °F 48.2 °F 49% 30.05 in 10.0 miles North - - N/A   Overcast
11:15 AM 68.0 °F 48.2 °F 49% 30.05 in 10.0 miles NNW 4.6 mph - N/A   Mostly Cloudy
11:35 AM 68.0 °F 50.0 °F 52% 30.05 in 10.0 miles West 9.2 mph - N/A   Mostly Cloudy
11:55 AM 69.8 °F 46.4 °F 43% 30.04 in 10.0 miles West 8.1 mph - N/A   Mostly Cloudy
12:15 PM 69.8 °F 44.6 °F 40% 30.04 in 10.0 miles WNW 8.1 mph - N/A   Overcast
12:35 PM 69.8 °F 48.2 °F 46% 30.05 in 10.0 miles WNW 5.8 mph - N/A   Overcast
12:55 PM 69.8 °F 48.2 °F 46% 30.04 in 10.0 miles West 5.8 mph - N/A   Overcast
1:15 PM 69.8 °F 46.4 °F 43% 30.04 in 10.0 miles West 12.7 mph 26.5 mph N/A   Overcast
1:35 PM 69.8 °F 48.2 °F 46% 30.04 in 10.0 miles WNW 10.4 mph 16.1 mph N/A   Overcast
1:55 PM 68.0 °F 50.0 °F 52% 30.04 in 10.0 miles WNW 9.2 mph 17.3 mph N/A   Overcast
2:15 PM 68.0 °F 50.0 °F 52% 30.03 in 10.0 miles WNW 10.4 mph - N/A   Overcast
2:35 PM 68.0 °F 50.0 °F 52% 30.02 in 10.0 miles WNW 8.1 mph 19.6 mph N/A   Overcast
2:55 PM 69.8 °F 46.4 °F 43% 30.01 in 10.0 miles NW 8.1 mph - N/A   Overcast
3:15 PM 69.8 °F 46.4 °F 43% 30.01 in 10.0 miles NNW 6.9 mph - N/A   Overcast
3:35 PM 69.8 °F 44.6 °F 40% 30.01 in 10.0 miles NW 6.9 mph - N/A   Overcast
3:55 PM 68.0 °F 46.4 °F 46% 30.00 in 10.0 miles NNW 9.2 mph 16.1 mph N/A   Mostly Cloudy
4:15 PM 68.0 °F 44.6 °F 43% 30.01 in 10.0 miles NNW 9.2 mph 19.6 mph N/A   Mostly Cloudy
4:35 PM 68.0 °F 42.8 °F 40% 30.01 in 10.0 miles NNW 8.1 mph - N/A   Mostly Cloudy
4:55 PM 66.2 °F 44.6 °F 46% 30.01 in 10.0 miles NNW 5.8 mph - N/A   Mostly Cloudy
5:15 PM 66.2 °F 42.8 °F 43% 30.02 in 10.0 miles NW 6.9 mph - N/A   Overcast
5:35 PM 64.4 °F 44.6 °F 49% 30.03 in 10.0 miles NNW 4.6 mph - N/A   Mostly Cloudy
5:55 PM 64.4 °F 42.8 °F 45% 30.03 in 10.0 miles North 4.6 mph - N/A   Mostly Cloudy
6:15 PM 62.6 °F 44.6 °F 52% 30.04 in 10.0 miles NNW 4.6 mph - N/A   Mostly Cloudy
6:35 PM 60.8 °F 44.6 °F 55% 30.05 in 10.0 miles NW 4.6 mph - N/A   Mostly Cloudy
6:55 PM 60.8 °F 44.6 °F 55% 30.05 in 10.0 miles NW 4.6 mph - N/A   Mostly Cloudy
7:15 PM 60.8 °F 44.6 °F 55% 30.06 in 10.0 miles NNW 4.6 mph - N/A   Mostly Cloudy
7:35 PM 59.0 °F 46.4 °F 63% 30.06 in 10.0 miles NW 4.6 mph - N/A   Overcast
7:55 PM 59.0 °F 46.4 °F 63% 30.06 in 10.0 miles Calm Calm - N/A   Mostly Cloudy
8:15 PM 59.0 °F 46.4 °F 63% 30.07 in 10.0 miles Calm Calm - N/A   Scattered Clouds
8:35 PM 59.0 °F 46.4 °F 63% 30.08 in 10.0 miles Calm Calm - N/A   Scattered Clouds
8:55 PM 59.0 °F 46.4 °F 63% 30.08 in 10.0 miles Calm Calm - N/A   Scattered Clouds
9:15 PM 59.0 °F 46.4 °F 63% 30.09 in 10.0 miles Calm Calm - N/A   Scattered Clouds
9:35 PM 57.2 °F 46.4 °F 67% 30.09 in 10.0 miles Calm Calm - N/A   Clear
9:55 PM 57.2 °F 46.4 °F 67% 30.09 in 10.0 miles Calm Calm - N/A   Clear
10:15 PM 57.2 °F 46.4 °F 67% 30.09 in 10.0 miles Calm Calm - N/A   Scattered Clouds
10:35 PM 57.2 °F 46.4 °F 67% 30.09 in 10.0 miles Calm Calm - N/A   Clear
10:55 PM 57.2 °F 46.4 °F 67% 30.09 in 10.0 miles Calm Calm - N/A   Clear
11:15 PM 57.2 °F 46.4 °F 67% 30.09 in 10.0 miles North 3.5 mph - N/A   Scattered Clouds
11:35 PM 57.2 °F 46.4 °F 67% 30.08 in 10.0 miles Calm Calm - N/A   Clear
11:55 PM 57.2 °F 46.4 °F 67% 30.08 in 10.0 miles Calm Calm - N/A   Clear
ADVERTISEMENT
Enter city or zip code to search weather conditions:


  • 490 First Avenue South
  • St. Petersburg, FL 33701
  • 727-893-8111